| time (UTC) | temp C | wind direction | speed KPH | gust KPH | rain 1hr cm | rain 24hr cm | rain mn cm | humidity % | barometer mb |
| 20260504025924 | 10 | 225 | 0.0 | 3.2 | 0.00 | 0.00 | 0.00 | 65 | 947.0 |
| 20260504025420 | 9 | 225 | 0.0 | 3.2 | 0.00 | 0.00 | 0.00 | 66 | 947.0 |
| 20260504024921 | 9 | 225 | 0.0 | 3.2 | 0.00 | 0.00 | 0.00 | 67 | 947.0 |
| 20260504024426 | 9 | 225 | 0.0 | 0.0 | 0.00 | 0.00 | 0.00 | 67 | 948.0 |
| 20260504023926 | 8 | 225 | 0.0 | 0.0 | 0.00 | 0.00 | 0.00 | 67 | 947.0 |
| 20260504023421 | 8 | 225 | 0.0 | 0.0 | 0.00 | 0.00 | 0.00 | 67 | 947.0 |
| 20260504022921 | 8 | 225 | 0.0 | 0.0 | 0.00 | 0.00 | 0.00 | 67 | 947.0 |
| 20260504022430 | 8 | 225 | 0.0 | 0.0 | 0.00 | 0.00 | 0.00 | 67 | 947.0 |
| 20260504021922 | 8 | 225 | 0.0 | 0.0 | 0.00 | 0.00 | 0.00 | 67 | 947.0 |
| 20260504020926 | 8 | 225 | 0.0 | 0.0 | 0.00 | 0.00 | 0.00 | 68 | 947.0 |
| 20260504020438 | 8 | 225 | 0.0 | 0.0 | 0.00 | 0.00 | 0.00 | 68 | 947.0 |
| 20260504015923 | 8 | 225 | 0.0 | 0.0 | 0.00 | 0.00 | 0.00 | 69 | 947.0 |
| 20260504015421 | 8 | 225 | 0.0 | 0.0 | 0.00 | 0.00 | 0.00 | 69 | 947.0 |
| 20260504014920 | 7 | 225 | 0.0 | 0.0 | 0.00 | 0.00 | 0.00 | 69 | 947.0 |
| 20260504013925 | 7 | 225 | 0.0 | 0.0 | 0.00 | 0.00 | 0.00 | 68 | 947.0 |
| 20260504013421 | 7 | 225 | 0.0 | 0.0 | 0.00 | 0.00 | 0.00 | 68 | 947.0 |
| 20260504012921 | 7 | 225 | 0.0 | 0.0 | 0.00 | 0.00 | 0.00 | 68 | 947.0 |
| 20260504012420 | 7 | 225 | 0.0 | 0.0 | 0.00 | 0.00 | 0.00 | 68 | 947.0 |
| 20260504011936 | 7 | 225 | 0.0 | 0.0 | 0.00 | 0.00 | 0.00 | 69 | 947.0 |
| 20260504011421 | 7 | 225 | 0.0 | 0.0 | 0.00 | 0.00 | 0.00 | 68 | 947.0 |
| 20260504005420 | 8 | 225 | 0.0 | 0.0 | 0.00 | 0.00 | 0.00 | 68 | 947.0 |
| 20260504002921 | 7 | 225 | 0.0 | 0.0 | 0.00 | 0.00 | 0.00 | 68 | 947.0 |
| 20260504002420 | 7 | 225 | 0.0 | 0.0 | 0.00 | 0.00 | 0.00 | 68 | 947.0 |
| 20260504001438 | 7 | 225 | 0.0 | 0.0 | 0.00 | 0.00 | 0.00 | 68 | 947.0 |
| 20260504000923 | 7 | 225 | 0.0 | 0.0 | 0.00 | 0.00 | 0.00 | 67 | 947.0 |
| 20260504000420 | 7 | 225 | 0.0 | 0.0 | 0.00 | 0.00 | 0.00 | 67 | 947.0 |
| 20260503234926 | 7 | 225 | 0.0 | 0.0 | 0.00 | 0.00 | 0.00 | 66 | 947.0 |
| 20260503234420 | 7 | 225 | 0.0 | 0.0 | 0.00 | 0.00 | 0.00 | 66 | 947.0 |
| 20260503232421 | 8 | 225 | 0.0 | 0.0 | 0.00 | 0.00 | 0.00 | 65 | 947.0 |
| 20260503231920 | 8 | 225 | 0.0 | 0.0 | 0.00 | 0.00 | 0.00 | 65 | 948.0 |
| 20260503231423 | 8 | 225 | 0.0 | 0.0 | 0.00 | 0.00 | 0.00 | 65 | 947.0 |
| 20260503230921 | 8 | 225 | 0.0 | 0.0 | 0.00 | 0.00 | 0.00 | 65 | 947.0 |
| 20260503225922 | 8 | 225 | 0.0 | 0.0 | 0.00 | 0.00 | 0.00 | 64 | 948.0 |
| 20260503224435 | 8 | 225 | 0.0 | 0.0 | 0.00 | 0.00 | 0.00 | 63 | 948.0 |
| 20260503223924 | 8 | 225 | 0.0 | 0.0 | 0.00 | 0.00 | 0.00 | 63 | 948.0 |
| 20260503222425 | 8 | 225 | 0.0 | 0.0 | 0.00 | 0.00 | 0.00 | 62 | 948.0 |
| 20260503221922 | 8 | 225 | 0.0 | 0.0 | 0.00 | 0.00 | 0.00 | 62 | 948.0 |
| 20260503221422 | 8 | 225 | 0.0 | 0.0 | 0.00 | 0.00 | 0.00 | 61 | 948.0 |
| 20260503213921 | 9 | 225 | 0.0 | 0.0 | 0.00 | 0.00 | 0.00 | 59 | 948.0 |
| 20260503213422 | 9 | 225 | 0.0 | 0.0 | 0.00 | 0.00 | 0.00 | 59 | 948.0 |
| 20260503210421 | 10 | 225 | 0.0 | 0.0 | 0.00 | 0.00 | 0.00 | 57 | 948.0 |
| 20260503205920 | 10 | 225 | 0.0 | 0.0 | 0.00 | 0.00 | 0.00 | 57 | 948.0 |
| 20260503205444 | 10 | 225 | 0.0 | 0.0 | 0.00 | 0.00 | 0.00 | 56 | 948.0 |
| 20260503204919 | 10 | 225 | 0.0 | 0.0 | 0.00 | 0.00 | 0.00 | 55 | 948.0 |
| 20260503204421 | 10 | 225 | 0.0 | 0.0 | 0.00 | 0.00 | 0.00 | 55 | 948.0 |
| 20260503203920 | 10 | 225 | 0.0 | 0.0 | 0.00 | 0.00 | 0.00 | 54 | 948.0 |
| 20260503203422 | 10 | 225 | 0.0 | 0.0 | 0.00 | 0.00 | 0.00 | 54 | 948.0 |
| 20260503202420 | 10 | 225 | 0.0 | 6.4 | 0.00 | 0.00 | 0.00 | 54 | 948.0 |
| 20260503201920 | 10 | 225 | 0.0 | 6.4 | 0.00 | 0.00 | 0.00 | 53 | 948.0 |
| 20260503201421 | 10 | 225 | 4.8 | 6.4 | 0.00 | 0.00 | 0.00 | 53 | 948.0 |
| 20260503200936 | 10 | 225 | 3.2 | 4.8 | 0.00 | 0.00 | 0.00 | 53 | 948.0 |
| 20260503200422 | 10 | 225 | 4.8 | 4.8 | 0.00 | 0.00 | 0.00 | 52 | 948.0 |
| 20260503195422 | 11 | 225 | 0.0 | 0.0 | 0.00 | 0.00 | 0.00 | 51 | 948.0 |
| 20260503194923 | 11 | 225 | 0.0 | 0.0 | 0.00 | 0.00 | 0.00 | 51 | 948.0 |
| 20260503194422 | 11 | 225 | 0.0 | 0.0 | 0.00 | 0.00 | 0.00 | 51 | 948.0 |
| 20260503193420 | 11 | 225 | 0.0 | 1.6 | 0.00 | 0.00 | 0.00 | 51 | 948.0 |
| 20260503191921 | 11 | 225 | 0.0 | 0.0 | 0.00 | 0.00 | 0.00 | 50 | 948.0 |
| 20260503190940 | 11 | 225 | 0.0 | 3.2 | 0.00 | 0.00 | 0.00 | 49 | 948.0 |
| 20260503190443 | 11 | 225 | 0.0 | 3.2 | 0.00 | 0.00 | 0.00 | 49 | 948.0 |
| 20260503185421 | 12 | 225 | 0.0 | 3.2 | 0.00 | 0.00 | 0.00 | 48 | 948.0 |
| 20260503183929 | 12 | 225 | 4.8 | 6.4 | 0.00 | 0.00 | 0.00 | 48 | 948.0 |
| 20260503181420 | 13 | 202 | 0.0 | 4.8 | 0.00 | 0.00 | 0.00 | 46 | 948.0 |
| 20260503180919 | 13 | 202 | 3.2 | 4.8 | 0.00 | 0.00 | 0.00 | 46 | 948.0 |
| 20260503180425 | 13 | 202 | 4.8 | 6.4 | 0.00 | 0.00 | 0.00 | 46 | 948.0 |
| 20260503175423 | 13 | 225 | 3.2 | 6.4 | 0.00 | 0.00 | 0.00 | 45 | 948.0 |
| 20260503174919 | 13 | 248 | 3.2 | 4.8 | 0.00 | 0.00 | 0.00 | 45 | 948.0 |
| 20260503173932 | 13 | 270 | 0.0 | 6.4 | 0.00 | 0.00 | 0.00 | 44 | 948.0 |
| 20260503173432 | 13 | 270 | 6.4 | 6.4 | 0.00 | 0.00 | 0.00 | 44 | 948.0 |
| 20260503172920 | 14 | 248 | 6.4 | 6.4 | 0.00 | 0.00 | 0.00 | 43 | 948.0 |
| 20260503172426 | 14 | 248 | 3.2 | 4.8 | 0.00 | 0.00 | 0.00 | 43 | 948.0 |
| 20260503170924 | 15 | 0 | 0.0 | 3.2 | 0.00 | 0.00 | 0.00 | 41 | 948.0 |
| 20260503170420 | 15 | 0 | 0.0 | 3.2 | 0.00 | 0.00 | 0.00 | 41 | 948.0 |
| 20260503150922 | 18 | 0 | 0.0 | 0.0 | 0.00 | 0.00 | 0.00 | 36 | 949.0 |
| 20260503150432 | 18 | 0 | 0.0 | 0.0 | 0.00 | 0.00 | 0.00 | 36 | 949.0 |
| 20260503130920 | 21 | 0 | 0.0 | 4.8 | 0.00 | 0.00 | 0.00 | 32 | 950.0 |
| 20260503130421 | 21 | 0 | 0.0 | 4.8 | 0.00 | 0.00 | 0.00 | 32 | 950.0 |
| 20260503110434 | 21 | 22 | 1.6 | 4.8 | 0.00 | 0.00 | 0.00 | 30 | 951.0 |
| 20260503090419 | 17 | 0 | 0.0 | 4.8 | 0.00 | 0.00 | 0.00 | 36 | 953.0 |
| 20260503081420 | 16 | 22 | 0.0 | 6.4 | 0.00 | 0.00 | 0.00 | 40 | 954.0 |
| 20260503080421 | 16 | 22 | 0.0 | 6.4 | 0.00 | 0.00 | 0.00 | 40 | 954.0 |
| 20260503072940 | 15 | 0 | 0.0 | 1.6 | 0.00 | 0.00 | 0.00 | 48 | 954.0 |
| 20260503072439 | 15 | 0 | 0.0 | 1.6 | 0.00 | 0.00 | 0.00 | 48 | 954.0 |
| 20260503071922 | 15 | 22 | 0.0 | 3.2 | 0.00 | 0.00 | 0.00 | 51 | 954.0 |
| 20260503071419 | 15 | 22 | 0.0 | 3.2 | 0.00 | 0.00 | 0.00 | 52 | 954.0 |
| 20260503070921 | 15 | 22 | 0.0 | 1.6 | 0.00 | 0.00 | 0.00 | 54 | 954.0 |
| 20260503070422 | 14 | 22 | 0.0 | 1.6 | 0.00 | 0.00 | 0.00 | 56 | 954.0 |
| 20260503054920 | 8 | 45 | 0.0 | 0.0 | 0.00 | 0.00 | 0.00 | 69 | 954.0 |
| 20260503054420 | 7 | 45 | 0.0 | 1.6 | 0.00 | 0.00 | 0.00 | 69 | 954.0 |
| 20260503053920 | 7 | 45 | 0.0 | 1.6 | 0.00 | 0.00 | 0.00 | 70 | 954.0 |
| 20260503052926 | 7 | 45 | 0.0 | 0.0 | 0.00 | 0.00 | 0.00 | 71 | 954.0 |
| 20260503051920 | 6 | 45 | 0.0 | 0.0 | 0.00 | 0.00 | 0.00 | 72 | 954.0 |
| 20260503045420 | 5 | 45 | 0.0 | 0.0 | 0.00 | 0.00 | 0.00 | 74 | 954.0 |
| 20260503044922 | 5 | 45 | 0.0 | 0.0 | 0.00 | 0.00 | 0.00 | 74 | 954.0 |
| 20260503044429 | 5 | 45 | 0.0 | 0.0 | 0.00 | 0.00 | 0.00 | 74 | 954.0 |
| 20260503043918 | 5 | 45 | 0.0 | 0.0 | 0.00 | 0.00 | 0.00 | 75 | 954.0 |
| 20260503042434 | 4 | 45 | 0.0 | 0.0 | 0.00 | 0.00 | 0.00 | 75 | 954.0 |
| 20260503040920 | 4 | 45 | 0.0 | 0.0 | 0.00 | 0.00 | 0.00 | 77 | 953.0 |
| 20260503040418 | 4 | 45 | 0.0 | 0.0 | 0.00 | 0.00 | 0.00 | 77 | 953.0 |
| 20260503035922 | 3 | 45 | 0.0 | 0.0 | 0.00 | 0.00 | 0.00 | 77 | 953.0 |
| 20260503035419 | 3 | 45 | 0.0 | 0.0 | 0.00 | 0.00 | 0.00 | 77 | 953.0 |
| 20260503034922 | 3 | 45 | 0.0 | 0.0 | 0.00 | 0.00 | 0.00 | 78 | 953.0 |
| 20260503034432 | 2 | 45 | 0.0 | 0.0 | 0.00 | 0.00 | 0.00 | 78 | 953.0 |
| 20260503033931 | 2 | 45 | 0.0 | 0.0 | 0.00 | 0.00 | 0.00 | 78 | 953.0 |
| 20260503032419 | 1 | 45 | 0.0 | 0.0 | 0.00 | 0.00 | 0.00 | 78 | 953.0 |
| 20260503031420 | 1 | 45 | 0.0 | 0.0 | 0.00 | 0.00 | 0.00 | 78 | 953.0 |
| 20260503030923 | 1 | 45 | 0.0 | 0.0 | 0.00 | 0.00 | 0.00 | 78 | 953.0 |